FW7384 Weather Reports


Display with metric or nautical units.
time (UTC)temp
F
wind
direction
speed
MPH
gust
MPH
rain 1hr
in
rain 24hr
in
rain mn
in
humidity
%
barometer
mb
20260502221503 54 182 0.0 1.0 0.00 0.00 0.00 66 1011.1
20260502221003 54 195 1.0 3.0 0.00 0.00 0.00 65 1011.3
20260502220503 54 182 2.0 3.0 0.00 0.00 0.00 67 1011.2
20260502220004 53 201 1.0 3.0 0.00 0.00 0.00 68 1011.3
20260502215503 53 228 0.0 2.0 0.00 0.00 0.00 68 1011.1
20260502215003 53 137 1.0 2.0 0.00 0.00 0.00 68 1011.1
20260502214503 53 88 1.0 2.0 0.00 0.00 0.00 68 1011.0
20260502214003 53 36 0.0 2.0 0.00 0.00 0.00 66 1011.2
20260502213714 53 0 0.0 0.0 0.00 0.00 0.00 66 1011.2
20260502213003 53 0 0.0 0.0 0.00 0.00 0.00 65 1011.3
20260502212503 54 21 0.0 1.0 0.00 0.00 0.00 64 1011.3
20260502212004 54 21 0.0 1.0 0.00 0.00 0.00 63 1011.3
20260502211503 54 44 0.0 1.0 0.00 0.00 0.00 62 1011.1
20260502211003 55 44 0.0 1.0 0.00 0.00 0.00 61 1011.4
20260502210503 56 0 0.0 0.0 0.00 0.00 0.00 59 1011.3
20260502210212 56 176 0.0 2.0 0.00 0.00 0.00 59 1011.4
20260502205503 56 193 0.0 2.0 0.00 0.00 0.00 59 1011.5
20260502205003 56 191 0.0 2.0 0.00 0.00 0.00 58 1011.4
20260502204504 57 154 0.0 1.0 0.00 0.00 0.00 58 1011.4
20260502204003 58 179 0.0 2.0 0.00 0.00 0.00 56 1011.7
20260502203503 58 191 1.0 2.0 0.00 0.00 0.00 56 1011.5
20260502203003 58 202 1.0 2.0 0.00 0.00 0.00 54 1011.5
20260502202713 58 204 1.0 2.0 0.00 0.00 0.00 54 1011.5
20260502202003 59 201 1.0 2.0 0.00 0.00 0.00 53 1011.4
20260502201713 59 200 1.0 2.0 0.00 0.00 0.00 52 1011.3
20260502201003 59 212 0.0 1.0 0.00 0.00 0.00 52 1011.4
20260502200503 60 204 0.0 2.0 0.00 0.00 0.00 51 1011.4
20260502200003 60 198 1.0 3.0 0.00 0.00 0.00 50 1011.5
20260502195503 60 179 2.0 3.0 0.00 0.00 0.00 49 1011.6
20260502195003 60 172 2.0 3.0 0.00 0.00 0.00 49 1011.5
20260502194503 61 178 2.0 4.0 0.00 0.00 0.00 49 1011.6
20260502194003 61 187 2.0 4.0 0.00 0.00 0.00 48 1011.7
20260502193503 61 193 1.0 2.0 0.00 0.00 0.00 48 1011.5
20260502193214 61 191 1.0 2.0 0.00 0.00 0.00 47 1011.7
20260502192503 62 184 1.0 3.0 0.00 0.00 0.00 47 1011.5
20260502192003 62 187 1.0 3.0 0.00 0.00 0.00 46 1011.8
20260502191503 62 180 2.0 4.0 0.00 0.00 0.00 45 1011.5
20260502191003 62 180 2.0 4.0 0.00 0.00 0.00 45 1011.5
20260502190503 62 180 2.0 4.0 0.00 0.00 0.00 45 1011.6
20260502190004 62 183 2.0 4.0 0.00 0.00 0.00 45 1011.6
20260502185713 62 190 2.0 4.0 0.00 0.00 0.00 44 1011.7
20260502185003 63 197 2.0 6.0 0.00 0.00 0.00 43 1011.8
20260502184503 63 188 2.0 6.0 0.00 0.00 0.00 43 1011.7
20260502184003 64 183 3.0 6.0 0.00 0.00 0.00 42 1011.6
20260502183712 64 179 4.0 10.0 0.00 0.00 0.00 42 1011.5
20260502183003 64 178 4.0 10.0 0.00 0.00 0.00 41 1011.7
20260502182503 64 186 4.0 6.0 0.00 0.00 0.00 41 1011.8
20260502182003 65 184 4.0 10.0 0.00 0.00 0.00 41 1011.7
20260502181503 65 184 4.0 10.0 0.00 0.00 0.00 40 1011.8
20260502181213 65 184 5.0 10.0 0.00 0.00 0.00 40 1011.9
20260502180503 65 186 5.0 8.0 0.00 0.00 0.00 39 1011.8
20260502170503 67 198 6.0 13.0 0.00 0.00 0.00 38 1012.0
20260502164213 68 191 5.0 11.0 0.00 0.00 0.00 36 1012.2
20260502163503 68 190 6.0 11.0 0.00 0.00 0.00 35 1012.1
20260502163003 68 190 6.0 11.0 0.00 0.00 0.00 35 1012.1
20260502162503 68 189 5.0 12.0 0.00 0.00 0.00 34 1012.2
20260502162003 69 195 5.0 12.0 0.00 0.00 0.00 33 1012.2
20260502161503 69 199 6.0 11.0 0.00 0.00 0.00 32 1012.5
20260502161003 69 196 5.0 10.0 0.00 0.00 0.00 31 1012.5
20260502160503 69 201 4.0 9.0 0.00 0.00 0.00 31 1012.5
20260502152003 70 201 6.0 12.0 0.00 0.00 0.00 30 1012.6
20260502151503 70 196 5.0 12.0 0.00 0.00 0.00 31 1012.9
20260502151003 70 194 5.0 10.0 0.00 0.00 0.00 32 1012.9
20260502150503 70 201 6.0 11.0 0.00 0.00 0.00 33 1013.0
20260502130503 71 201 8.0 17.0 0.00 0.00 0.00 31 1014.0
20260502130213 71 204 7.0 17.0 0.00 0.00 0.00 31 1014.1
20260502123714 71 200 6.0 15.0 0.00 0.00 0.00 31 1014.2
20260502123003 70 198 7.0 15.0 0.00 0.00 0.00 32 1014.5
20260502122503 70 196 7.0 13.0 0.00 0.00 0.00 33 1014.5
20260502122003 70 200 8.0 15.0 0.00 0.00 0.00 34 1014.6
20260502121503 70 206 7.0 15.0 0.00 0.00 0.00 33 1014.8
20260502121003 70 209 7.0 17.0 0.00 0.00 0.00 33 1014.7
20260502120503 70 207 7.0 17.0 0.00 0.00 0.00 34 1014.8
20260502120213 70 199 8.0 17.0 0.00 0.00 0.00 34 1014.9
20260502115503 70 181 7.0 16.0 0.00 0.00 0.00 34 1014.9
20260502115003 70 192 6.0 16.0 0.00 0.00 0.00 34 1015.0
20260502114503 70 201 6.0 16.0 0.00 0.00 0.00 35 1015.2
20260502114003 70 199 7.0 16.0 0.00 0.00 0.00 35 1015.1
20260502113503 70 199 8.0 16.0 0.00 0.00 0.00 35 1015.0
20260502113004 69 203 7.0 15.0 0.00 0.00 0.00 35 1015.2
20260502112503 69 200 7.0 16.0 0.00 0.00 0.00 35 1015.3
20260502112003 69 188 7.0 16.0 0.00 0.00 0.00 35 1015.3
20260502111504 69 191 7.0 15.0 0.00 0.00 0.00 36 1015.6
20260502111003 69 194 7.0 14.0 0.00 0.00 0.00 35 1015.6
20260502110503 69 189 7.0 16.0 0.00 0.00 0.00 37 1015.3
20260502110003 69 196 7.0 16.0 0.00 0.00 0.00 36 1015.6
20260502105503 69 199 7.0 15.0 0.00 0.00 0.00 37 1015.8
20260502105003 68 198 9.0 15.0 0.00 0.00 0.00 37 1015.9
20260502104503 68 197 9.0 15.0 0.00 0.00 0.00 37 1015.8
20260502104003 69 199 8.0 16.0 0.00 0.00 0.00 37 1015.7
20260502103503 69 204 7.0 16.0 0.00 0.00 0.00 37 1015.8
20260502103003 68 204 7.0 15.0 0.00 0.00 0.00 37 1015.9
20260502102713 69 202 7.0 15.0 0.00 0.00 0.00 37 1016.0
20260502102003 68 199 8.0 18.0 0.00 0.00 0.00 38 1016.0
20260502101713 68 196 8.0 18.0 0.00 0.00 0.00 37 1016.1
20260502101003 68 191 8.0 15.0 0.00 0.00 0.00 38 1016.0
20260502100503 68 198 8.0 15.0 0.00 0.00 0.00 38 1016.1
20260502091503 66 193 7.0 15.0 0.00 0.00 0.00 40 1016.5
20260502091003 66 195 7.0 15.0 0.00 0.00 0.00 41 1016.5
20260502090713 66 197 6.0 15.0 0.00 0.00 0.00 41 1016.5
20260502090214 65 197 6.0 15.0 0.00 0.00 0.00 42 1016.8
20260502071503 59 207 3.0 5.0 0.00 0.00 0.00 54 1017.5
20260502071003 58 209 3.0 6.0 0.00 0.00 0.00 56 1017.6
20260502070503 58 214 3.0 6.0 0.00 0.00 0.00 56 1017.7
20260502070003 57 211 3.0 6.0 0.00 0.00 0.00 57 1017.6
20260502065503 57 210 3.0 6.0 0.00 0.00 0.00 57 1017.9
20260502065003 56 206 3.0 6.0 0.00 0.00 0.00 58 1017.9
20260502064503 56 185 3.0 5.0 0.00 0.00 0.00 59 1017.7
20260502064003 56 174 3.0 7.0 0.00 0.00 0.00 59 1018.0
20260502063503 56 173 3.0 7.0 0.00 0.00 0.00 60 1017.9
20260502063003 55 170 3.0 7.0 0.00 0.00 0.00 60 1018.0
20260502062714 55 184 3.0 5.0 0.00 0.00 0.00 61 1018.2
20260502062003 54 167 3.0 9.0 0.00 0.00 0.00 64 1018.1
20260502061714 53 147 2.0 9.0 0.00 0.00 0.00 65 1018.1
20260502061003 53 134 2.0 6.0 0.00 0.00 0.00 66 1018.1
20260502060503 51 144 2.0 6.0 0.00 0.00 0.00 68 1018.2
20260502060003 51 136 2.0 6.0 0.00 0.00 0.00 68 1018.2
20260502055503 51 100 2.0 4.0 0.00 0.00 0.00 68 1018.3
20260502055213 51 84 2.0 4.0 0.00 0.00 0.00 70 1018.3
20260502054503 49 111 2.0 5.0 0.00 0.00 0.00 73 1018.5
20260502054003 49 107 2.0 5.0 0.00 0.00 0.00 74 1018.5
20260502053503 48 104 2.0 4.0 0.00 0.00 0.00 76 1018.5
20260502053003 46 102 2.0 3.0 0.00 0.00 0.00 79 1018.5
20260502052503 45 96 1.0 3.0 0.00 0.00 0.00 82 1018.7
20260502052003 43 89 1.0 3.0 0.00 0.00 0.00 83 1018.7
20260502051503 42 38 2.0 3.0 0.00 0.00 0.00 84 1018.6
20260502051003 42 38 2.0 3.0 0.00 0.00 0.00 85 1018.8
20260502050503 41 39 1.0 3.0 0.00 0.00 0.00 85 1018.8
20260502050003 40 42 2.0 3.0 0.00 0.00 0.00 87 1018.8
20260502045503 39 52 1.0 3.0 0.00 0.00 0.00 86 1018.8
20260502045003 39 42 1.0 3.0 0.00 0.00 0.00 87 1018.9
20260502044504 38 32 2.0 3.0 0.00 0.00 0.00 89 1019.0
20260502044003 37 38 2.0 3.0 0.00 0.00 0.00 89 1018.9
20260502043503 37 39 2.0 3.0 0.00 0.00 0.00 89 1019.0
20260502043003 36 30 2.0 3.0 0.00 0.00 0.00 90 1018.9
20260502042503 36 35 1.0 3.0 0.00 0.00 0.00 91 1019.1
20260502042003 35 33 2.0 2.0 0.00 0.00 0.00 91 1019.1
20260502041503 35 34 1.0 2.0 0.00 0.00 0.00 91 1019.2
20260502041214 35 44 1.0 2.0 0.00 0.00 0.00 91 1019.3
20260502040503 35 60 1.0 3.0 0.00 0.00 0.00 92 1019.3
20260502040003 35 44 2.0 4.0 0.00 0.00 0.00 91 1019.3
20260502035503 35 29 2.0 4.0 0.00 0.00 0.00 90 1019.4
20260502035003 35 30 2.0 3.0 0.00 0.00 0.00 90 1019.5
20260502034503 36 31 1.0 3.0 0.00 0.00 0.00 89 1019.4
20260502034004 35 37 1.0 3.0 0.00 0.00 0.00 92 1019.4
20260502033713 34 62 1.0 4.0 0.00 0.00 0.00 94 1019.5
20260502033003 36 35 2.0 4.0 0.00 0.00 0.00 90 1019.5
20260502032713 36 1 1.0 4.0 0.00 0.00 0.00 93 1019.6
20260502032003 34 17 0.0 2.0 0.00 0.00 0.00 93 1019.5
20260502031713 34 48 0.0 2.0 0.00 0.00 0.00 94 1019.7
20260502031214 34 44 1.0 3.0 0.00 0.00 0.00 92 1019.7
20260502030503 35 43 1.0 3.0 0.00 0.00 0.00 91 1019.9
20260502030003 35 42 1.0 3.0 0.00 0.00 0.00 91 1019.8
20260502025503 35 34 1.0 4.0 0.00 0.00 0.00 91 1020.2
20260502025003 35 31 2.0 4.0 0.00 0.00 0.00 90 1020.1
20260502024503 36 29 1.0 3.0 0.00 0.00 0.00 91 1020.2
20260502024214 36 33 1.0 3.0 0.00 0.00 0.00 92 1020.0
20260502023712 35 41 1.0 2.0 0.00 0.00 0.00 94 1020.2
20260502023213 34 36 1.0 2.0 0.00 0.00 0.00 93 1020.2
20260502022503 35 39 1.0 2.0 0.00 0.00 0.00 92 1020.2
20260502022003 35 45 1.0 2.0 0.00 0.00 0.00 92 1020.4
20260502021503 35 48 1.0 2.0 0.00 0.00 0.00 93 1020.6
20260502021003 35 45 1.0 2.0 0.00 0.00 0.00 91 1020.5
20260502020503 35 44 2.0 4.0 0.00 0.00 0.00 91 1020.7
20260502020003 36 43 2.0 4.0 0.00 0.00 0.00 90 1020.8
20260502015503 36 41 2.0 3.0 0.00 0.00 0.00 90 1020.7
20260502015003 36 32 1.0 3.0 0.00 0.00 0.00 91 1020.7
20260502014714 36 32 1.0 3.0 0.00 0.00 0.00 92 1020.7
20260502014003 36 37 1.0 3.0 0.00 0.00 0.00 93 1021.0
20260502013503 36 33 1.0 3.0 0.00 0.00 0.00 92 1020.9
20260502013003 36 38 1.0 2.0 0.00 0.00 0.00 91 1020.9
20260502012503 36 44 1.0 2.0 0.00 0.00 0.00 91 1020.9
20260502012004 36 36 2.0 3.0 0.00 0.00 0.00 90 1021.0
20260502011503 37 35 2.0 3.0 0.00 0.00 0.00 90 1021.1
20260502011003 37 31 2.0 3.0 0.00 0.00 0.00 89 1021.4
20260502010503 37 33 1.0 3.0 0.00 0.00 0.00 89 1021.2
20260502010213 37 41 1.0 2.0 0.00 0.00 0.00 90 1021.2
20260502005714 38 47 1.0 2.0 0.00 0.00 0.00 89 1021.2
20260502005213 37 47 0.0 2.0 0.00 0.00 0.00 92 1021.2
20260502004503 37 51 1.0 3.0 0.00 0.00 0.00 92 1021.3
20260502004213 37 46 1.0 3.0 0.00 0.00 0.00 91 1021.3
20260502003503 37 45 1.0 3.0 0.00 0.00 0.00 91 1021.5
20260502003003 37 45 1.0 2.0 0.00 0.00 0.00 90 1021.7
20260502002503 37 37 1.0 2.0 0.00 0.00 0.00 90 1021.7
20260502002003 37 34 1.0 2.0 0.00 0.00 0.00 91 1021.6
20260502001503 37 41 1.0 2.0 0.00 0.00 0.00 91 1021.5
20260502001004 37 46 0.0 2.0 0.00 0.00 0.00 90 1021.8
20260502000503 37 52 1.0 3.0 0.00 0.00 0.00 89 1021.7
20260502000003 38 51 2.0 3.0 0.00 0.00 0.00 88 1021.8
20260501235503 38 40 1.0 3.0 0.00 0.00 0.00 89 1021.7
20260501235003 38 46 1.0 2.0 0.00 0.00 0.00 89 1021.7
20260501234503 38 57 1.0 3.0 0.00 0.00 0.00 89 1021.9
20260501234003 38 48 2.0 3.0 0.00 0.00 0.00 87 1022.0
20260501233503 39 34 2.0 3.0 0.00 0.00 0.00 87 1022.0
20260501233003 39 32 1.0 2.0 0.00 0.00 0.00 88 1022.0
20260501232503 39 38 1.0 3.0 0.00 0.00 0.00 87 1022.1
20260501232003 39 41 2.0 3.0 0.00 0.00 0.00 86 1022.3
20260501231503 40 44 1.0 3.0 0.00 0.00 0.00 86 1022.3
20260501231214 40 39 1.0 3.0 0.00 0.00 0.00 86 1022.2
20260501230503 40 50 1.0 2.0 0.00 0.00 0.00 86 1022.4
20260501230214 40 64 1.0 2.0 0.00 0.00 0.00 86 1022.3
20260501225713 40 56 0.0 2.0 0.00 0.00 0.00 86 1022.5
20260501225003 40 50 1.0 3.0 0.00 0.00 0.00 85 1022.5
20260501224503 40 47 2.0 3.0 0.00 0.00 0.00 84 1022.5
20260501224003 41 36 1.0 2.0 0.00 0.00 0.00 82 1022.4
20260501223503 41 31 1.0 2.0 0.00 0.00 0.00 83 1022.5
20260501223003 41 38 1.0 2.0 0.00 0.00 0.00 83 1022.5
20260501222503 41 45 1.0 2.0 0.00 0.00 0.00 83 1022.5
20260501222003 41 48 1.0 2.0 0.00 0.00 0.00 82 1022.4